Location: Stigler
(35.2540°N, 95.1230°W)
Time: 20:46:17
(UTC-05:00)

Daily predictions for brighter satellites

Satellite Brightness Start Highest point End
(mag) Time Altitude Azimuth Time Altitude Azimuth Time Altitude Azimuth
Cosmos 2219 Rocket 3.1 21:00:40 10° NNW 21:06:07 49° WSW 21:11:30 10° S
Cosmos 614 Rocket 4.0 21:03:40 10° S 21:08:52 74° ESE 21:14:04 10° NNE
Cosmos 2084 3.3 21:05:18 10° SSW 21:09:21 60° ESE 21:13:10 10° NE
Helios 1B rocket 2.8 21:06:26 10° NNE 21:10:24 43° E 21:14:20 10° S
Cosmos 1867 3.7 21:07:23 10° S 21:12:37 52° ESE 21:17:54 10° NE
Milstar 3 Cent rocket 3.5 21:07:00 10° WSW 21:12:51 49° S 21:23:59 10° ESE
USA 186 1.2 21:10:43 10° S 21:13:02 68° WSW 21:15:17 10° NNW
SL-8 R/B 4.3 21:09:39 10° WNW 21:14:17 51° SW 21:18:53 10° SSE
Resurs 01 Rocket 2.4 21:10:52 10° S 21:15:10 54° W 21:19:29 10° NNW
Cosmos 2333 Rocket 3.1 21:10:59 10° NNW 21:16:26 49° WSW 21:21:49 10° S
Helios 1A 3.4 21:12:36 10° SSE 21:16:34 46° ENE 21:20:33 10° N
Cosmos 1850 Rocket 4.0 21:14:32 10° S 21:19:37 63° ESE 21:24:45 10° NNE
USA 234 3.9 21:14:47 10° ENE 21:20:31 32° SE 21:26:13 10° S
Resurs 1-3 4.4 21:16:53 10° S 21:21:09 52° W 21:25:27 10° NNW
Lacrosse 4 Rocket 4.4 21:18:37 10° WSW 21:21:56 22° NW 21:25:20 10° N
Meteor 2-1 Rocket 4.3 21:19:36 10° N 21:25:24 69° E 21:31:02 10° SSE
ERS-1 Rocket 4.0 21:21:47 10° SE 21:26:07 30° ENE 21:30:28 10° N
H-2A ROCKET BODY 3.3 21:26:22 10° SSE 21:28:12 14° SE 21:31:07 10° ESE
Cosmos 1184 Rocket 3.2 21:26:04 10° SSW 21:29:23 68° W 21:32:45 10° N
Cosmos 1356 Rocket 3.9 21:31:33 10° SSE 21:35:32 42° E 21:39:36 10° NNE
Cosmos 1842 Rocket 4.2 21:33:57 10° NNW 21:38:14 56° W 21:42:28 10° S
Cosmos 2297 Rocket 4.0 21:33:52 10° SW 21:39:02 36° WNW 21:44:14 10° N
YAOGAN 6 2.6 21:38:47 13° SSE 21:41:58 65° ENE 21:45:36 10° N
H-2A R/B 3.8 21:39:05 11° ESE 21:42:15 18° ENE 21:45:45 10° NNE
Cosmos 2173 Rocket 4.4 21:37:00 10° N 21:42:54 45° E 21:47:54 15° SSE
Cosmos 1741 Rocket 4.2 21:39:50 10° SSW 21:45:08 76° WNW 21:50:28 10° NNE
Cosmos 2263 Rocket 3.6 21:46:57 15° ESE 21:48:05 16° E 21:51:21 10° ENE
NOSS 3-4 (A) 4.1 21:41:07 10° NW 21:48:14 69° WSW 21:55:19 12° SSE
NOSS 3-4 (C) 4.1 21:41:12 10° NW 21:48:19 70° WSW 21:55:23 12° SSE
Cosmos 1726 3.8 21:48:33 10° NNE 21:51:07 18° ENE 21:52:04 16° E
Meteor 1-21 Rocket 4.2 21:45:35 10° S 21:51:13 66° E 21:56:46 10° NNE
Cosmos 1818 3.6 21:45:48 10° NNW 21:51:15 71° ENE 21:55:11 19° SE
ATLAS 5 CENTAUR R/B 3.1 21:47:36 10° SW 21:51:58 42° NW 21:56:42 10° NNE
Cosmos 1076 Rocket 3.4 21:50:05 10° S 21:54:25 77° E 21:58:48 10° N
RESURS DK-1 4.0 21:51:47 10° N 21:55:00 21° ENE 21:56:54 16° E
Spot 1 4.3 21:53:03 11° S 21:56:58 63° WSW 22:01:08 10° NNW
Meteor 2-17 Rocket 4.5 21:51:38 10° N 21:57:45 65° E 22:02:39 16° SSE
Cosmos 1408 Rocket 3.8 21:55:01 17° SSE 21:58:07 49° E 22:02:16 10° NNE
Cosmos 1939 Rocket 4.2 22:01:16 10° SSW 22:04:58 37° W 22:08:45 10° NNW
CZ-4B DEB 3.7 22:03:00 15° SSW 22:05:11 41° W 22:08:01 10° NNW
Cosmos 1802 Rocket 4.0 22:01:32 10° N 22:07:36 63° E 22:11:50 21° SSE
Tiangong 1 3.6 22:08:41 10° NW 22:10:37 17° N 22:12:34 10° NE
Cosmos 2237 Rocket 4.2 22:06:45 10° NW 22:11:06 23° W 22:15:26 10° SSW
Cosmos 2221 3.0 22:07:31 10° NNW 22:11:51 59° W 22:15:27 14° S
Cosmos 1674 3.6 22:13:40 10° SSW 22:17:18 46° W 22:20:56 10° N
Cosmos 1603 4.1 22:14:16 10° N 22:19:46 50° ENE 22:22:24 29° SE
Cosmos 371 Rocket 4.1 22:19:54 10° N 22:24:20 35° ENE 22:25:49 28° ESE
GPS 2-05 Rocket1 3.0 22:21:42 10° WSW 22:24:07 43° SSW 22:24:07 43° SSW
MetOp-A 4.1 22:21:43 24° SSE 22:25:01 89° WSW 22:30:24 10° NNW
Cosmos 2208 Rocket 4.4 22:21:26 10° NNW 22:26:43 62° WSW 22:30:06 22° S
Cosmos 1486 Rocket 4.2 22:24:29 28° SSE 22:26:56 50° ESE 22:32:03 10° NNE
ARGOS 3.1 22:24:14 29° SSE 22:27:07 73° ENE 22:32:31 10° N
SPOT 5 2.9 22:26:16 33° SSE 22:28:21 67° ENE 22:33:23 10° N
Cosmos 1908 4.2 22:25:37 10° NNW 22:29:18 44° W 22:31:32 21° SSW
Lacrosse 5 2.4 22:27:33 10° NNW 22:32:27 48° NE 22:34:30 31° E
Cosmos 2016 Rocket 3.9 22:27:45 10° N 22:34:02 86° E 22:37:34 27° S
Cosmos 1763 Rocket 4.2 22:29:22 10° N 22:34:04 36° ENE 22:35:29 30° E
Cosmos 1943 4.2 22:29:43 10° N 22:34:47 33° ENE 22:36:46 26° E
Cosmos 1766 Rocket 4.2 22:31:57 14° SSW 22:35:32 52° W 22:39:47 10° N
SL-16 R/B 3.4 22:31:13 10° NW 22:36:21 36° WSW 22:40:15 16° SSW
SPOT 1/Viking Rocket 3.7 22:35:08 37° SE 22:37:00 59° ENE 22:42:03 10° N
Abrixas rocket 4.4 22:35:09 10° NNW 22:37:32 18° NNE 22:38:41 16° NE
Cosmos 1242 Rocket 4.0 22:36:18 10° NNW 22:39:40 33° W 22:41:26 21° SW
Cosmos 1328 Rocket 3.4 22:39:52 10° N 22:44:10 69° E 22:44:57 55° SE
Atlas Centaur 2 3.1 22:41:48 10° WSW 22:43:05 15° SW 22:43:05 15° SW
USA 245 3.0 22:44:50 62° SSW 22:45:13 71° W 22:49:10 10° NNW
OAO 1 Rocket 4.4 22:41:52 10° W 22:47:15 89° S 22:49:48 32° E
YAOGAN 11 4.3 22:45:54 41° S 22:47:24 72° WSW 22:51:57 10° NNW
Landsat 7 4.1 22:47:28 43° ESE 22:48:22 49° ENE 22:52:58 10° N
Cosmos 1515 Rocket 3.6 22:45:56 10° N 22:50:12 56° E 22:50:33 54° ESE
Cosmos 1151 Rocket 3.5 22:46:16 10° N 22:50:26 42° E 22:50:35 42° E
H-2A R/B 3.4 22:51:01 25° ENE 22:51:06 25° ENE 22:54:36 10° NNE
Cosmos 1743 Rocket 3.5 22:50:22 46° SSW 22:51:35 83° W 22:55:56 10° N
Delta 2 Rocket 4.0 22:49:11 10° WSW 22:54:55 76° SSE 22:58:13 27° E
Cosmos 1703 4.1 22:57:47 37° ENE 22:57:47 37° ENE 23:00:48 10° NNE
Cosmos 2233 Rocket 4.1 22:52:16 10° N 22:58:22 56° E 23:00:00 43° SE
Cosmos 2228 Rocket 3.1 22:54:09 10° N 22:58:45 87° W 22:59:34 61° S
SL-08 RB Rocket 4.1 23:00:01 42° SSW 23:01:15 58° W 23:05:48 10° NNW
Terra 2.1 23:02:54 47° E 23:03:19 49° ENE 23:07:54 10° N
USA 234 3.7 22:57:15 10° NE 23:03:40 61° NW 23:10:04 10° WSW
Cosmos 468 Rocket 4.3 22:59:45 10° NNW 23:04:45 56° WSW 23:06:13 41° SSW
Meteor 1-11 4.2 23:06:01 41° S 23:08:12 89° W 23:14:02 10° N
CZ-4 R/B 4.4 23:07:06 10° NNE 23:11:05 41° ENE 23:11:05 41° ENE
Meteor 2-12 Rocket 4.5 23:06:54 10° N 23:12:54 62° E 23:14:05 52° SE
Cosmos 1503 Rocket 3.8 23:12:35 65° SE 23:13:00 69° ESE 23:18:09 10° NNE
Cosmos 332 Rocket 4.3 23:10:05 10° NNW 23:14:51 53° WSW 23:15:45 46° SW
Cosmos 1447 Rocket 4.4 23:14:04 43° S 23:16:22 90° WSW 23:22:45 10° N
Cosmos 1626 2.8 23:19:15 50° N 23:19:15 50° N 23:22:05 10° N
Cosmos 2058 3.0 23:21:05 71° WNW 23:21:05 71° WNW 23:25:13 10° N
H-2A R/B 2.6 23:19:43 41° SSW 23:21:09 53° W 23:26:26 10° NNW
Sakura Rocket 4.3 23:16:07 10° W 23:22:49 43° SSW 23:22:49 43° SSW
Cosmos 304 Rocket 4.4 23:20:58 10° N 23:25:22 44° ENE 23:25:22 44° ENE
Cosmos 1726 4.2 23:23:34 10° NW 23:26:19 20° W 23:26:41 20° W
Meteor 1-27 4.2 23:21:15 10° N 23:27:04 83° W 23:28:05 62° S
Cosmos 1300 4.5 23:27:17 10° NW 23:30:28 25° W 23:30:38 25° W
Cosmos 2263 Rocket 2.7 23:28:33 27° SW 23:31:25 56° WNW 23:36:55 10° NNE
CZ-4B R/B 3.7 23:26:37 10° NNE 23:31:26 57° E 23:31:26 57° E
RESURS DK-1 4.0 23:29:30 10° NW 23:32:49 26° W 23:32:49 26° W
Cosmos 540 Rocket 3.9 23:28:29 10° N 23:33:24 47° ENE 23:33:24 47° ENE
Spot 4 4.3 23:34:13 50° ENE 23:34:13 50° ENE 23:38:41 10° N
Cosmos 2285 Rocket 3.9 23:39:26 10° NNW 23:45:48 76° ENE 23:46:33 67° SE
Tiangong 1 4.3 23:44:17 10° NW 23:44:32 12° NW 23:44:32 12° NW
deb Chang Zheng 4 4.0 23:42:55 10° N 23:46:51 60° NW 23:46:51 60° NW
Cosmos 2034 Rocket 4.4 23:45:12 10° N 23:51:18 47° E 23:51:34 47° E
